Location: Arena
(42.5007°N, 9.4650°E)
Time: 03:18:02
(UTC+00:00)

STARLINK-1206 - Pass Details

Date: 09 April 2020
Orbit: 548 x 551 km, 53.0° (Epoch: 02 June)

Event Time Altitude Azimuth Distance (km) Brightness Sun altitude
Rises 18:18:24 0° 308° (NW) 2,740 8.7 -4.6°
Reaches altitude 10° 18:20:46 10° 317° (NW) 1,843 7.4 -5.0°
Drops below altitude 10° 18:28:36 10° 95° (E) 1,835 5.6 -6.4°
Enters shadow 18:29:06 - 98° (E) 2,019 5.8 -6.5°
Exits shadow 19:04:35 -71° 124° (SE) 12,636 10.4 -12.6°
Maximum altitude 20:04:24 44° 224° (SW) 776 4.3 -22.2°
